Regional Weather Roundup
Issued by NWS

Home | Current Version | Previous Version | Graphics & Text | Print | Product List | Glossary On
Versions: 1 2 3 4 5 6 7 8 9 10 11 12 13 14 15 16 17 18 19 20 21 22 23 24 25 26 27 28 29 30 31 32 33 34 35 36 37 38 39 40 41 42 43 44 45 46 47 48 49 50
000
ASUS43 KDTX 310310
RWRMI
MICHIGAN HOURLY REGIONAL WEATHER ROUNDUP
NATIONAL WEATHER SERVICE DETROIT/PONTIAC MI
1100 PM EDT THU OCT 30 2014

NOTE: "FAIR" INDICATES FEW OR NO CLOUDS BELOW 12,000 FEET WITH NO
SIGNIFICANT WEATHER AND/OR OBSTRUCTION TO VISIBILITY.

MIZ047>049-052>055-059>063-066>070-074>076-081>083-310400-
SOUTHEAST LOWER MICHIGAN

CITY           SKY/WX    TMP DP  RH WIND       PRES   REMARKS
ADRIAN         CLOUDY    44  36  73 SW5       30.04S
ALMA           CLOUDY    44  37  78 SW3       30.00F
ANN ARBOR      CLOUDY    44  35  70 SW5       30.02F
BAD AXE        LGT RAIN  43  41  94 S6        29.99F
DETROIT CITY   CLOUDY    49  36  61 SW8       30.03F
DETROIT        CLOUDY    47  37  68 S8        30.04S
FLINT          CLOUDY    47  37  68 SW5       30.01F
GROSSE ILE     CLOUDY    46  37  71 SW5       30.02S
HILLSDALE      CLOUDY    45  37  75 S5        30.02S
HOWELL         CLOUDY    44  37  75 SW3       30.01S

CITY           SKY/WX    TMP DP  RH WIND       PRES   REMARKS
JACKSON        CLOUDY    44  36  73 SW5       30.02S
LAMBERTVILLE   CLOUDY    46  36  66 CALM      30.04S
LANSING        CLOUDY    45  36  70 SW6       30.01F
LAPEER         NOT AVBL
MASON          CLOUDY    44  36  75 CALM      30.01S
MONROE         CLOUDY    46  39  76 CALM      30.02S
MT. CLEMENS    CLOUDY    47  37  68 SW7       30.00F
PONTIAC        CLOUDY    45  35  68 SW6       30.00F
PORT HOPE        N/A     44  39  82 VRB3      29.97F
PORT HURON     CLOUDY    45  37  76 CALM      30.01F
TRI CITIES     CLOUDY    45  38  76 SW7       30.00F
YPSILANTI      CLOUDY    49  38  65 SW6       30.03F
$$
MIZ043>046-050>051-056>058-064>065-071>073-077>080-310400-
SOUTHWEST LOWER MICHIGAN

CITY           SKY/WX    TMP DP  RH WIND       PRES   REMARKS
BATTLE CREEK   CLOUDY    45  37  73 SW5       30.02F
BENTON HARBOR  CLOUDY    48  39  71 W7        30.02F
BIG RAPIDS     CLOUDY    42  39  88 CALM      29.97F
COLDWATER      CLOUDY    45  38  75 SW3       30.02F
HOLLAND        CLOUDY    48  39  71 W6        30.01F
GRAND RAPIDS   CLOUDY    45  38  76 SW5       30.01F
KALAMAZOO      CLOUDY    46  36  68 SW5       30.03S
MARSHALL       CLOUDY    43  36  77 SW5       30.01F
MUSKEGON       CLOUDY    49  37  63 W7        30.00F
$$
MIZ016>042-310400-
NORTHERN LOWER MICHIGAN

CITY           SKY/WX    TMP DP  RH WIND       PRES   REMARKS
ALPENA         CLOUDY    42  40  92 SW5       29.94F
BEAVER ISLAND  DRIZZLE   42  39  89 W3        29.94F
BELLAIRE       MIX PCPN  42  40  91 CALM      29.95F
CADILLAC       CLOUDY    40  36  86 CALM      29.95S
CHARLEVOIX     CLOUDY    42  38  83 NW10G16   29.97S
FRANKFORT      CLOUDY    45  37  74 NW5       29.96F
GAYLORD        LGT RAIN  39  38  96 VRB3      29.93S
GRAYLING       CLOUDY    40  38  89 SW5       29.95F
HARBOR SPRINGS DRIZZLE   41  39  93 CALM      29.94S
HOUGHTON LAKE  CLOUDY    42  38  85 SW6       29.95F
MANISTEE       CLOUDY    46  36  66 NW9       29.97F
OSCODA         LGT RAIN  42  42  99 SW3       29.96F
PELLSTON       LGT RAIN  41  39  93 W5        29.94S
TRAVERSE CITY  CLOUDY    44  38  79 CALM      29.95S
$$
MIZ007>008-015-310400-
EASTERN UPPER MICHIGAN

CITY           SKY/WX    TMP DP  RH WIND       PRES   REMARKS
KINROSS        CLOUDY    39  39 100 NW3       29.91F
MACKINAC ISLAN LGT RAIN  40  39  97 NW5       29.92F
NEWBERRY       LGT RAIN  38  38  97 W5        29.92F
S. S. MARIE    LGT RAIN  39  37  93 NE3       29.91F
$$
MIZ004>006-011>014-085-310400-
CENTRAL UPPER MICHIGAN

CITY           SKY/WX    TMP DP  RH WIND       PRES   REMARKS
MANISTIQUE     RAIN      39  38  97 CALM      29.94F
ESCANABA       CLOUDY    39  34  81 NW6       29.96S
MENOMINEE      CLOUDY    43  30  61 NW5       29.99S
SAWYER-GWINN   LGT SNOW  34  32  94 NW5       29.97R
$$
MIZ001>003-009>011-084-310400-
WESTERN UPPER MICHIGAN

CITY           SKY/WX    TMP DP  RH WIND       PRES   REMARKS
IRON MOUNTAIN  LGT RAIN  38  33  82 NW16      29.98R
HOUGHTON       LGT SNOW  33  29  85 N17G38    30.06R VSB 3/4
COPPER HARBOR    N/A     37  34  89 NE35G46   30.06R
IRONWOOD       CLOUDY    32  30  93 N21G29    30.10R VSB 1/2
$$

ABBREVIATIONS USED IN REMARKS
   TC - TEMPERATURE IN CELSIUS
  WCI - WIND CHILL INDEX
   HX - HEAT INDEX
  VSB - VISIBILITY




USA.gov is the U.S. government's official web portal to all federal, state and local government web resources and services.